STARLINK-35337, 65831

Orbit data source: Space-Track

STARLINK-35337, 65831 is a payload satellite owned by SpaceX/Seattle (US) in LEO that was launched on Mon, 29 Sep 2025 UTC via an FALCON 9 launch vehicle from the Air Force Western Test Range (AFWTR). Payload-class satellites include a variety of spacecraft equipped with specific instruments for various scientific and technological missions. These include communications satellites like Starlink; space stations such as the ISS; scientific satellites like the Hubble; Earth observation satellites from companies like Planet Labs, Umbra, and HawkEye 360; GPS; miniature CubeSats for education and research; and military/defense satellites.

Loading next visibility...
Identifier
65831, 2025-221J
Orbit
LEO
Country
Flag of USUS
Related business
Manufacturer
SpaceX/Seattle
Mission
Operational Commercial Communications
Bus & Motor
STARLINK V2MO, Unknown motor
Mass
575 kg wet, ~530 kg dry
Launch date (UTC)
2025-09-29 (1 month ago)
Launch vehicle
FALCON 9
Launch site
Air Force Western Test Range (AFWTR)
Object type
Payload
Rocket body
Debris
Shape & HBR
Box + 2 Pan, 17.7 m
Radar Cross Section
36.964 m²

Expand to show TLE details & history
Last TLE update: 2 days ago

TLE from 2 days ago
0 STARLINK-35337
1 65831U 25221J   25312.83335647 -.01445568  00000-0 -50915-1 0  9993
2 65831  53.1596 289.6539 0001489 118.8135 127.6024 15.32044588  5901
Epoch: 2025-11-08T20:00Z
TLE epoch observation values (Epoch: 2025-11-08T20:00:01.999Z)
Latitude
-47.3666°
Longitude
175.41579°
Altitude
486.528 km
Speed
7.621 km/s
True Right ascension
10h 54m 43s
True Declination
-47° 11' 18"
Sunlit
Object was in daylight at epoch
Visualization orbit readout
Latitude
Unknown
Longitude
Unknown
Altitude
Unknown
Speed
Unknown
Apparent Right ascension
Unknown
Apparent Declination
Unknown
Sunlit
N/A
Visualization observer readout
Local Sidereal Time
04:39:59
Azimuth
Unknown
Elevation
Unknown
Doppler factor
Unknown
Orbital elements
Apogee altitude
470.989 km
Perigee altitude
468.95 km
Semi-major axis
6,848.107 km
Eccentricity
0.00015
Inclination
53.1596°
RAAN
289.6539°
Arg. of periapsis
118.8135°
True anomaly
127.61592°
Mean anomaly
127.6024°
Eccentric anomaly
127.60916°
Mean motion
3.8299 °/min
Orbital period
94 mins
BSTAR
-0.050915
Loading maneuver chart data...
Computing Atmospheric mass density...
Loading historical data...
Loading historical data...
Loading historical data...
Loading historical data...
Loading historical data...
Loading historical data...
Loading historical data...

Documentation

Showing up to 5 results
|